This is the latest recevied weather packets stored in our database for station/object SR8NGO-1. If no packets are shown the sender has not sent any weather packets the latest 10 day(s).
| Time | Temp. | Humidity | Pressure | Rain* | Wind** | Luminosity | Snow |
|---|---|---|---|---|---|---|---|
| 1777474118 | 7.78° C | 59% | 1014.6 hPa | 137.92 mm | - | - | - |
| 1777473878 | 7.78° C | 59% | 1014.5 hPa | 137.92 mm | - | - | - |
| 1777473638 | 7.78° C | 60% | 1014.5 hPa | 137.92 mm | - | - | - |
| 1777473398 | 7.78° C | 60% | 1014.5 hPa | 137.92 mm | - | - | - |
| 1777473158 | 7.78° C | 60% | 1014.5 hPa | 137.92 mm | - | - | - |
| 1777472918 | 7.22° C | 60% | 1014.5 hPa | 137.92 mm | - | - | - |
| 1777472678 | 7.22° C | 58% | 1014.5 hPa | 137.92 mm | - | - | - |
| 1777472438 | 7.22° C | 58% | 1014.4 hPa | 137.92 mm | - | - | - |
| 1777472198 | 7.22° C | 59% | 1014.4 hPa | 137.92 mm | - | - | - |
| 1777471958 | 7.22° C | 58% | 1014.4 hPa | 137.92 mm | - | - | - |
| 1777471238 | 7.22° C | 56% | 1014.3 hPa | 137.92 mm | - | - | - |
| 1777470998 | 7.22° C | 54% | 1014.3 hPa | 137.92 mm | - | - | - |
| 1777470758 | 7.78° C | 53% | 1014.2 hPa | 137.92 mm | - | - | - |
| 1777470518 | 7.78° C | 55% | 1014.2 hPa | 137.92 mm | - | - | - |
| 1777470278 | 12.22° C | 53% | 1014.1 hPa | 137.92 mm | - | - | - |
| 1777470038 | 12.22° C | 52% | 1014.1 hPa | 137.92 mm | - | - | - |
| 1777469798 | 12.78° C | 56% | 1014 hPa | 137.92 mm | - | - | - |
| 1777469558 | 12.22° C | 57% | 1014 hPa | 137.92 mm | - | - | - |
| 1777469318 | 11.11° C | 57% | 1014 hPa | 137.92 mm | - | - | - |
| 1777469078 | 13.89° C | 56% | 1013.9 hPa | 137.92 mm | - | - | - |
| 1777468838 | 12.22° C | 57% | 1013.9 hPa | 137.92 mm | - | - | - |
| 1777468598 | 12.22° C | 58% | 1013.9 hPa | 137.92 mm | - | - | - |
| 1777468358 | 13.89° C | 57% | 1013.9 hPa | 137.92 mm | - | - | - |
| 1777468118 | 8.89° C | 57% | 1013.9 hPa | 137.92 mm | - | - | - |
| 1777467878 | 12.78° C | 58% | 1014 hPa | 137.92 mm | - | - | - |
* Rain latest hour (hover to see other rain measurements)
** Current wind speed in m/s (hover to see current wind gust speed)